Theta_e
325 322 321 320 321 325 327 327 329 330 331 332 330 327 325 321 322 331 338 338 339 337 338 343 340 342 343 343 348 348 347 349 347 348 349 350 350 349 350 350 349 350 350 353 353 350 351 352 351 352 352 352 353 353 353 357 359 360 358 357 359 359 357 356 357 358 357 356 356 356 357 356 356 357 357 357 355 355 356 358 362 363 364 363 360 358
324 320 320 323 324 326 327 328 329 330 332 332 329 325 324 323 325 333 337 336 339 336 335 342 341 342 345 342 345 348 349 348 347 348 349 350 350 350 352 352 351 351 349 351 353 351 351 352 352 352 353 353 353 354 355 357 360 362 360 357 359 360 358 356 356 358 357 356 356 356 357 355 354 355 355 355 354 353 353 358 363 364 364 364 361 359
321 320 322 324 326 326 327 329 328 330 331 330 329 324 320 324 328 332 335 337 338 335 335 342 339 339 345 343 343 347 349 350 348 348 348 349 351 351 352 353 352 352 351 350 351 352 351 351 353 353 353 353 353 356 357 359 361 362 362 359 359 361 360 358 356 358 358 357 357 356 356 355 353 352 353 353 352 352 352 356 363 364 364 364 361 361
315 320 324 325 325 326 326 328 329 329 329 329 328 321 318 326 326 321 329 338 340 336 337 341 338 339 345 344 343 346 348 351 350 347 347 348 350 351 351 352 353 353 353 352 350 351 351 351 353 352 354 354 354 356 357 360 361 362 362 361 360 361 360 360 358 358 358 358 358 357 358 357 354 351 352 352 352 353 354 356 361 364 366 365 362 362
318 323 325 324 324 326 325 326 328 325 323 327 329 323 321 327 327 323 331 339 338 337 341 339 329 330 342 344 345 345 346 349 351 350 348 347 349 350 350 351 353 352 354 354 352 352 351 351 353 353 354 355 354 355 357 360 361 362 363 362 362 362 361 361 360 359 359 359 359 359 360 359 356 353 353 353 353 354 355 357 360 363 365 364 361 359
323 325 325 324 324 325 324 325 327 324 319 321 328 330 328 330 331 330 335 334 326 325 336 337 322 322 336 343 345 346 345 347 350 352 351 349 350 350 351 351 352 352 352 355 354 353 353 352 352 353 355 355 354 356 357 359 360 361 363 363 363 363 362 361 360 361 361 360 360 361 361 359 357 356 355 355 355 354 355 355 356 357 358 358 357 355
324 326 325 323 323 324 324 323 326 327 318 315 325 332 333 333 331 330 330 326 317 319 334 339 325 320 327 335 345 345 345 347 347 350 351 351 351 349 351 352 352 352 352 354 355 354 354 353 352 354 354 356 355 355 357 358 360 361 362 364 364 363 363 362 361 362 362 361 361 361 361 359 358 358 357 358 357 354 354 353 351 352 354 355 355 353
325 325 324 323 323 323 321 321 325 328 319 316 327 333 332 333 331 331 328 323 321 324 332 337 331 321 319 329 343 343 342 346 346 350 351 350 351 350 351 352 352 353 352 353 355 355 355 354 353 353 354 356 356 355 356 358 359 361 363 364 365 364 363 362 362 362 363 362 361 362 361 359 358 357 357 358 358 356 353 351 350 350 352 354 355 352
328 325 323 324 323 321 321 322 326 327 322 323 330 332 331 333 332 332 327 322 324 325 319 325 329 323 318 328 342 343 339 342 345 348 350 349 350 351 352 352 351 353 353 353 354 356 356 354 354 353 354 356 355 355 356 358 359 361 363 364 366 366 363 362 362 363 363 363 362 362 361 359 359 358 357 356 356 355 354 352 352 351 352 354 355 353
328 325 324 324 322 321 323 325 326 327 325 327 330 331 332 332 332 333 328 321 321 320 314 318 322 321 318 323 332 336 333 337 344 344 347 349 351 352 353 353 352 353 354 353 354 356 356 356 355 354 354 356 355 355 356 357 358 360 363 365 366 366 364 362 363 363 364 364 363 362 360 360 360 359 358 356 353 354 355 354 353 353 354 354 353 353
328 326 326 325 324 324 324 325 325 325 326 327 328 329 328 330 332 331 328 322 316 315 315 317 320 320 318 320 327 332 334 339 344 344 345 347 349 352 352 351 350 352 354 355 354 356 357 356 356 354 354 355 355 355 355 356 358 359 362 365 366 367 365 363 363 365 365 364 363 362 360 360 360 360 360 358 355 355 355 355 354 354 354 354 353 352
328 326 326 325 324 324 324 324 325 325 326 326 328 327 321 321 324 321 319 319 315 313 315 318 321 320 315 320 330 338 341 341 344 344 343 344 346 350 351 349 350 351 352 355 356 356 358 357 356 355 355 355 356 355 355 356 357 358 361 365 367 367 366 364 364 365 365 365 363 362 361 360 360 360 360 360 358 356 356 356 355 354 354 354 354 351
325 326 326 326 325 325 323 321 322 324 325 325 324 320 313 312 316 315 314 314 313 313 316 320 321 317 316 324 336 341 341 341 343 343 341 340 342 347 349 350 351 350 349 353 356 356 359 358 356 356 356 356 358 357 355 355 357 358 361 364 367 367 367 365 364 365 365 364 363 363 362 360 360 360 360 360 359 357 356 356 355 354 354 354 354 352
318 323 325 325 324 324 323 318 315 317 322 322 319 314 311 311 314 315 314 314 314 313 316 321 321 315 316 327 340 342 338 340 341 341 340 339 341 342 345 350 351 350 350 354 357 356 358 359 357 358 358 358 359 358 356 355 356 359 361 364 367 368 368 367 365 365 366 365 364 364 364 362 360 360 360 360 359 357 356 356 355 354 353 354 354 352
312 315 321 324 323 324 324 321 318 320 322 323 324 321 314 312 314 315 313 313 314 313 314 319 319 314 315 327 340 339 338 339 339 339 341 340 342 339 340 349 351 347 348 353 358 358 358 359 360 359 359 359 359 359 356 355 357 360 362 364 367 368 369 368 367 366 366 366 365 364 364 363 361 360 360 360 359 357 356 356 356 354 354 353 353 352
312 312 322 325 325 324 323 322 324 323 319 322 327 322 315 317 317 314 313 314 314 313 314 315 316 320 326 334 340 339 339 339 338 339 340 339 340 338 338 346 351 348 346 351 356 359 358 359 361 361 360 360 361 360 357 355 357 360 362 364 367 369 370 369 369 367 367 367 366 365 365 364 363 361 360 360 360 359 357 356 356 356 355 353 352 352
311 314 326 327 325 326 324 322 325 321 317 320 320 315 319 327 324 313 312 315 314 312 314 314 314 320 326 331 336 339 338 338 339 338 338 339 339 338 339 342 347 350 350 352 358 361 359 359 361 361 360 361 361 360 359 358 359 360 361 364 367 368 369 370 370 369 368 368 367 367 367 365 364 362 361 360 360 360 358 357 357 357 356 354 353 352
317 314 325 328 324 326 326 323 325 323 322 320 314 317 325 327 325 318 313 314 314 313 314 313 312 315 316 320 333 340 338 337 340 338 337 338 337 337 340 342 346 351 353 356 359 361 360 360 361 362 361 360 362 362 362 360 361 361 361 364 368 368 368 369 369 369 368 368 368 368 368 366 365 363 362 361 360 360 359 358 359 357 355 355 354 352
322 313 320 330 326 327 328 324 321 322 325 322 319 325 324 315 314 316 313 312 314 314 314 313 312 313 312 317 329 336 337 338 340 339 338 337 337 336 339 343 348 351 354 357 359 360 361 360 361 363 361 360 362 363 364 363 363 362 362 365 367 368 368 368 368 369 368 369 368 368 369 367 366 365 363 362 361 361 361 360 359 357 355 355 354 352
327 316 315 326 328 326 326 322 316 317 323 323 323 326 324 317 315 315 314 313 313 313 314 314 313 313 317 326 332 336 339 340 339 340 339 336 337 337 337 340 345 348 353 357 358 359 361 360 361 363 361 360 362 364 365 364 364 363 363 365 366 367 368 367 367 369 369 369 368 368 369 369 368 366 364 364 362 362 363 361 361 359 355 355 355 353
328 321 313 321 327 323 320 321 319 318 320 318 315 316 318 319 319 318 316 314 313 313 313 315 313 313 324 335 337 339 340 339 339 340 339 337 336 337 337 339 341 346 352 357 358 358 359 359 361 363 362 360 361 364 365 364 364 362 362 364 365 366 367 367 367 367 369 369 368 368 369 369 369 368 366 365 364 364 365 363 362 359 357 357 356 354
325 323 315 315 317 315 317 325 326 323 323 320 316 314 316 318 316 314 314 314 313 313 312 315 313 314 328 337 337 337 338 337 339 339 337 337 336 337 338 338 340 347 353 357 357 356 358 360 360 362 362 359 360 364 364 363 363 360 361 363 363 364 365 365 365 367 369 369 369 369 369 369 369 368 367 366 365 365 365 364 363 361 358 358 356 353
326 325 318 313 316 319 323 327 326 324 326 325 322 321 321 319 314 310 310 312 312 313 313 314 312 317 332 339 336 337 338 336 337 338 337 336 336 337 337 337 342 351 356 356 352 353 358 359 361 363 363 360 361 364 363 361 361 359 359 361 362 363 363 362 363 366 369 370 370 370 369 368 369 369 367 367 366 366 365 364 363 361 359 358 356 353
328 324 318 314 319 324 325 326 327 326 325 322 321 324 322 320 318 317 317 316 314 311 312 313 311 316 331 341 338 338 338 336 336 338 337 336 337 337 337 339 342 350 358 358 353 354 356 358 362 365 366 365 364 364 364 362 360 359 358 359 360 361 361 361 361 364 369 371 369 369 369 369 369 369 368 366 366 366 364 363 363 362 359 358 356 354
323 322 319 314 316 318 318 320 321 321 322 320 321 325 323 322 323 322 320 320 316 312 313 314 311 315 331 341 338 336 338 337 336 336 336 337 337 336 337 340 343 351 360 361 357 356 356 359 367 370 371 371 367 365 365 362 361 361 359 359 359 360 360 360 359 363 369 371 369 369 370 369 369 370 368 367 365 365 363 362 362 361 359 358 357 355
324 326 322 315 314 315 313 314 315 316 319 320 322 323 324 324 322 318 315 313 313 314 315 313 311 318 334 339 336 336 337 337 338 337 336 337 337 336 338 343 349 359 367 363 358 359 360 366 370 371 373 372 366 365 366 364 362 361 361 361 359 358 360 361 360 361 366 370 369 370 371 370 369 369 368 367 366 364 363 361 360 361 360 358 357 355
327 329 327 321 317 317 316 318 323 323 318 315 318 320 322 324 323 320 313 309 312 314 313 316 318 319 328 336 336 336 336 337 339 337 336 338 338 337 345 357 359 363 367 364 359 361 365 369 370 370 371 370 366 365 366 365 364 363 364 363 359 358 361 362 361 361 365 369 369 370 371 371 370 369 368 368 366 364 363 360 357 359 360 358 356 355
328 324 325 327 323 323 325 326 328 327 320 317 318 318 320 323 323 319 313 313 317 312 308 319 326 319 322 334 337 336 337 337 338 337 336 338 338 335 345 363 366 364 365 363 361 363 365 367 369 369 370 370 368 366 367 366 364 364 365 364 362 360 361 363 363 362 364 368 370 371 372 372 371 370 368 368 367 365 364 360 358 359 360 358 356 355
328 322 325 327 324 327 330 329 328 327 325 323 322 321 321 322 320 317 315 319 322 314 311 322 327 322 326 333 333 334 338 337 337 338 336 335 338 337 339 355 363 364 364 364 362 364 366 367 370 371 370 370 369 368 368 368 366 366 366 366 364 361 361 364 365 365 365 368 370 372 373 372 371 369 368 367 366 365 364 361 359 359 360 358 356 354
327 325 330 328 322 325 328 328 329 327 324 324 325 325 325 324 322 320 320 323 323 320 320 325 327 326 330 331 332 334 336 336 336 337 335 334 337 338 336 342 351 354 359 364 365 365 366 368 371 372 371 371 370 370 370 369 368 368 367 367 366 363 362 365 367 367 367 368 370 372 373 372 369 368 367 365 364 364 362 361 359 359 359 358 356 355
325 325 333 331 322 322 327 329 329 327 324 321 322 327 326 325 324 322 322 324 323 321 324 325 324 326 330 333 333 334 335 337 336 337 337 337 337 337 336 336 339 339 344 355 364 366 368 370 373 373 373 372 371 371 371 370 370 369 368 368 367 365 364 366 368 369 368 369 371 372 373 371 368 367 366 364 363 363 361 360 359 359 358 357 356 355
326 326 330 331 321 319 326 328 327 327 325 319 318 324 324 323 323 323 324 325 322 320 322 320 317 322 329 332 332 334 335 335 336 336 337 337 337 337 336 336 337 337 337 346 360 368 370 370 373 374 372 371 371 372 372 372 372 370 369 370 369 366 365 368 370 371 371 371 372 372 373 371 367 367 366 365 363 363 362 360 359 359 359 357 356 355
329 328 326 327 321 319 325 327 325 325 322 317 318 323 326 326 325 324 326 328 326 325 322 318 319 326 331 330 330 333 333 334 336 336 337 340 341 340 338 336 336 336 338 348 359 366 369 368 370 372 373 372 371 372 372 372 372 371 370 371 371 368 367 369 372 372 373 373 373 373 372 369 366 366 366 365 364 363 361 360 360 360 358 357 356 355
328 329 329 328 321 318 323 326 325 321 317 319 326 328 328 328 327 326 325 327 329 329 326 325 327 330 331 329 329 331 332 334 336 337 336 339 341 340 337 337 337 335 336 345 350 356 366 369 369 371 374 374 371 371 372 371 372 372 371 371 372 370 369 371 373 374 374 374 374 374 371 367 365 365 365 364 363 363 361 359 359 358 355 355 356 355
327 329 331 330 323 319 323 325 322 318 320 326 331 331 330 329 328 329 328 329 329 329 330 330 330 330 330 330 330 331 332 333 333 335 335 335 335 337 336 335 340 337 336 342 347 353 365 371 368 370 374 372 370 370 372 372 372 371 372 373 373 371 371 372 373 375 375 374 374 373 370 366 364 364 364 363 362 362 360 359 359 357 354 354 355 354
331 331 332 330 327 324 323 322 321 323 328 331 331 330 329 330 330 328 328 330 330 329 330 329 330 330 330 329 329 332 333 331 332 334 334 332 332 334 332 333 337 337 335 342 351 360 370 369 367 370 372 370 369 370 371 372 372 372 372 374 373 372 373 373 373 375 375 374 374 372 368 365 362 362 362 362 361 360 359 358 358 356 355 354 353 353
332 335 333 328 327 326 320 318 322 325 325 327 333 335 334 334 335 333 330 332 334 332 332 331 331 331 331 330 330 330 331 333 334 334 332 332 333 333 331 332 334 334 336 343 351 363 370 368 367 371 371 369 368 369 371 371 371 372 373 374 373 373 374 373 374 375 374 374 374 371 367 366 363 361 360 360 360 358 357 356 355 355 355 353 351 351
329 334 335 328 326 326 321 319 324 323 321 327 335 339 338 335 336 338 334 332 334 332 331 331 331 330 330 331 331 331 332 333 333 334 333 332 333 333 332 334 334 333 336 344 354 363 369 368 368 370 370 368 368 370 371 370 371 373 374 374 373 373 373 373 373 373 373 372 373 370 368 366 364 361 359 360 359 357 355 354 354 353 352 350 349 348
328 331 334 329 325 325 322 321 323 323 326 337 342 339 337 334 335 337 329 327 335 341 340 339 340 339 337 334 331 332 333 331 330 332 333 333 334 335 333 337 338 335 338 349 357 364 368 367 367 369 368 368 370 372 370 369 371 373 373 374 374 371 371 371 371 371 371 371 371 369 367 365 363 360 359 358 357 355 354 353 352 350 349 348 347 346
327 329 330 325 322 324 323 322 322 323 331 343 342 337 336 335 336 334 323 325 342 351 347 346 347 346 346 345 339 333 332 332 331 330 332 334 334 334 335 338 339 337 341 351 357 362 365 366 368 370 369 369 371 370 368 367 370 372 372 372 371 368 368 369 369 370 369 369 368 367 364 362 360 359 357 357 356 354 353 352 350 348 346 345 345 344
325 326 327 324 322 322 322 321 321 324 334 341 338 336 337 335 334 329 325 335 350 350 346 348 349 346 347 348 345 338 332 331 332 331 334 337 336 335 338 343 344 343 345 351 358 363 366 367 369 369 367 368 369 367 366 369 371 370 370 368 366 366 366 368 369 369 368 367 365 363 361 360 358 357 356 355 355 353 352 351 349 346 344 343 343 342
322 322 322 323 322 320 321 321 319 324 336 341 336 335 336 333 330 331 337 346 349 345 345 348 347 348 349 347 346 345 338 331 329 331 337 344 347 349 348 348 348 350 352 358 362 364 365 365 366 367 367 368 367 366 367 370 370 368 367 366 366 367 368 368 368 367 365 364 362 359 358 358 357 356 354 354 354 353 351 349 348 346 343 342 341 341
322 321 318 321 324 322 319 319 319 324 336 340 335 336 339 336 334 339 343 343 341 342 346 346 346 350 351 347 345 346 342 336 333 336 343 349 353 353 354 354 355 357 360 362 363 363 365 367 368 368 369 367 366 367 368 368 368 367 367 368 368 367 367 366 365 364 362 361 360 358 357 356 355 354 353 353 353 352 350 348 346 344 342 341 341 341
326 322 319 322 327 321 316 319 326 331 337 338 337 339 341 339 339 341 341 341 342 344 345 346 347 349 351 350 346 343 341 342 346 350 354 357 356 356 358 360 362 362 362 361 362 364 366 368 366 365 364 364 365 366 367 368 369 369 368 368 366 364 364 364 362 360 359 358 358 357 355 354 352 352 352 352 352 350 347 346 345 344 342 341 342 341
334 332 329 330 332 327 325 331 338 339 338 337 337 339 339 338 339 340 341 343 345 344 345 348 348 347 349 350 347 345 347 351 354 355 356 358 358 359 360 361 361 361 360 360 362 364 363 363 363 363 364 365 366 366 367 368 368 368 366 365 362 362 362 361 359 358 356 356 356 355 353 351 351 350 350 350 350 348 346 344 344 344 342 342 343 342
337 339 338 338 340 340 339 341 341 338 337 336 335 336 336 336 337 339 341 342 343 343 345 346 346 347 348 348 348 349 352 353 354 353 354 357 358 358 359 360 359 359 359 360 361 361 361 362 363 364 366 366 365 365 366 365 364 364 363 361 360 360 359 358 357 356 354 354 353 351 350 350 349 349 349 347 347 347 346 344 344 344 344 343 343 343
337 335 336 340 341 339 340 342 340 338 338 336 336 336 335 334 334 335 338 341 340 340 342 344 346 347 347 348 351 353 353 354 355 356 356 358 359 358 359 360 359 357 358 358 358 359 360 360 360 361 364 364 363 361 361 360 360 360 359 359 359 358 357 356 354 353 352 352 351 350 349 349 348 348 347 346 346 347 346 344 344 344 344 343 343 343
338 335 336 340 342 340 342 344 341 339 339 337 336 336 334 334 334 334 335 337 337 336 339 342 344 345 346 347 350 351 351 352 354 356 356 356 356 358 359 360 360 360 359 359 359 359 361 361 360 360 362 362 360 358 357 357 357 357 357 357 357 357 356 354 352 352 351 350 349 349 349 348 347 347 346 345 345 346 345 345 343 343 343 343 343 343
334 335 337 339 341 342 343 343 339 339 339 337 336 336 334 334 335 334 334 334 335 335 336 338 340 341 342 344 346 347 348 350 351 352 352 352 353 355 355 357 358 360 362 362 361 360 361 362 361 360 360 359 357 357 356 355 355 355 356 356 356 356 355 353 352 351 350 349 348 348 348 347 346 346 346 345 343 342 343 344 344 344 343 342 342 342
335 337 338 338 340 341 342 341 340 340 339 336 335 335 333 332 332 333 332 332 332 333 333 334 334 335 336 337 340 342 343 345 347 347 347 349 351 352 352 354 353 354 357 360 360 360 361 361 360 360 359 357 357 356 354 354 354 354 354 355 356 355 354 353 352 350 349 348 347 346 347 346 345 346 346 344 341 339 339 340 341 342 342 340 339 339
335 336 336 337 339 340 341 340 340 340 338 337 335 334 334 332 331 331 331 331 330 331 331 331 331 332 332 333 334 335 338 339 340 341 342 344 346 349 351 352 351 351 353 356 358 359 360 359 360 359 358 357 356 355 354 354 353 353 354 355 355 354 353 353 351 349 348 347 345 344 345 345 345 346 345 343 341 339 338 338 338 338 338 339 338 337
Wind_Speed
12 10 13 14 15 18 20 20 20 20 19 17 14 12 13 13 11 13 12 15 15 13 12 14 13 14 12 12 13 12 13 14 13 13 12 12 13 13 14 15 15 16 15 18 23 25 25 24 23 22 21 22 23 22 22 23 22 22 21 20 20 19 19 18 18 18 17 17 16 15 16 15 15 14 13 13 13 12 10 9 9 10 10 10 11 10
13 12 15 17 19 20 20 21 22 21 21 18 15 12 12 12 11 13 12 15 16 12 11 13 14 15 14 13 14 13 14 14 14 14 13 14 14 13 15 16 16 14 14 16 20 23 26 25 25 24 22 23 24 24 24 24 23 22 22 21 20 19 20 20 19 18 18 18 17 16 16 15 14 14 13 13 12 12 11 10 9 10 10 10 11 10
13 13 17 20 19 19 20 21 22 22 22 17 13 11 10 11 11 11 11 15 14 9 9 13 14 13 14 14 14 15 14 13 13 14 13 14 14 13 14 15 15 15 15 16 18 21 26 27 27 26 24 24 25 24 25 24 24 23 22 22 21 20 20 21 20 19 18 17 17 16 14 14 13 12 12 12 12 12 12 11 11 10 10 11 11 10
11 13 18 20 18 21 22 21 23 20 17 16 13 11 10 12 12 10 8 12 12 8 8 12 11 10 12 14 14 15 14 13 14 15 14 14 14 15 15 15 15 17 16 17 18 20 23 27 28 27 26 25 25 25 25 25 25 24 24 23 22 21 21 21 21 20 19 17 17 15 14 13 12 11 11 12 12 12 11 11 12 11 11 12 11 9
14 13 17 19 19 22 22 20 21 17 13 16 17 14 12 14 14 10 8 11 10 10 11 12 9 9 11 14 14 13 15 15 15 15 15 14 15 16 16 16 16 17 17 17 18 19 20 23 27 28 27 26 26 26 26 26 26 24 24 24 23 22 21 20 21 21 19 17 17 16 15 13 12 11 11 12 13 12 12 12 12 12 12 11 10 9
15 14 16 20 20 21 22 19 20 17 13 16 19 19 17 15 15 14 12 12 9 10 14 14 10 8 11 15 14 12 14 16 15 15 16 15 15 16 16 16 17 17 17 18 18 19 19 22 26 28 28 27 27 27 27 27 26 25 24 24 24 22 21 21 21 22 20 18 18 17 16 15 13 13 13 13 13 12 12 12 12 12 12 10 9 9
11 15 17 21 22 22 21 18 20 19 13 13 16 20 21 19 16 18 16 12 8 8 12 14 11 8 9 13 15 14 15 17 16 16 17 15 15 16 16 16 17 17 18 18 19 19 20 22 24 26 28 29 27 27 27 26 26 25 24 24 25 23 22 21 21 22 21 19 19 18 17 16 15 14 14 14 13 12 11 11 11 11 10 9 9 9
12 19 19 19 20 20 18 16 19 20 15 12 15 19 22 21 20 20 16 10 9 8 10 14 13 9 8 10 15 17 17 17 17 17 17 16 17 18 18 18 18 19 18 18 19 20 21 21 23 26 29 29 28 27 27 26 26 26 25 25 25 24 22 22 21 22 22 20 19 19 18 16 16 15 14 13 13 12 11 10 9 9 8 9 8 8
15 21 20 18 18 16 15 16 18 20 16 14 16 17 18 19 21 21 15 10 10 10 9 14 15 10 8 10 13 16 17 17 17 18 18 17 17 17 18 19 19 20 20 20 20 21 21 22 25 28 29 29 29 27 27 26 26 26 26 25 25 25 23 22 22 22 23 21 20 19 18 17 16 15 14 14 13 12 11 10 9 8 8 8 8 8
13 18 19 18 16 14 15 16 19 20 15 14 18 18 17 18 19 18 15 11 11 12 11 15 17 11 8 10 12 12 14 15 15 15 16 16 15 14 15 16 17 17 19 19 21 21 21 24 27 28 29 29 29 28 27 27 26 26 26 26 26 26 24 23 23 23 23 23 21 20 19 18 16 15 14 13 12 12 11 10 10 9 8 8 9 9
12 14 16 15 14 14 16 17 20 21 18 16 17 17 18 16 14 13 13 12 12 12 14 18 20 14 9 10 11 11 12 14 13 12 12 14 15 14 14 14 15 15 16 18 19 20 22 25 27 28 29 29 29 28 27 27 27 26 26 26 27 26 25 24 24 24 24 24 23 21 20 20 18 16 15 14 13 12 11 11 11 11 10 10 9 9
15 13 12 13 15 15 17 18 18 20 19 16 13 14 15 12 9 10 12 13 13 11 14 18 21 18 12 9 10 12 14 15 13 12 14 16 15 15 15 14 14 16 16 16 17 18 19 21 24 26 28 29 29 29 29 29 28 27 27 27 27 27 26 25 25 25 25 25 24 22 21 21 19 18 16 15 14 13 13 12 12 11 11 10 10 9
16 15 13 13 17 18 17 15 15 16 17 15 12 13 15 11 9 11 12 12 12 12 14 17 19 17 12 10 12 14 14 14 14 14 15 15 15 17 18 17 15 15 17 18 17 17 18 19 20 23 26 29 30 31 31 31 30 28 28 28 28 28 28 26 26 26 26 25 25 24 22 21 20 19 18 16 15 15 15 14 13 12 11 11 11 11
12 16 17 16 14 17 19 15 12 13 15 16 14 13 14 11 10 12 12 12 12 13 15 18 17 14 10 11 17 18 15 13 15 16 15 14 14 16 17 17 14 14 15 17 18 18 18 19 19 22 26 29 29 31 32 31 30 29 28 29 29 29 28 27 27 27 27 26 26 24 23 22 21 21 20 18 17 16 16 15 14 13 12 12 12 12
12 13 17 18 12 15 21 18 15 14 14 15 15 14 14 11 11 12 10 11 11 12 15 18 15 11 9 10 14 17 17 13 11 13 15 15 15 12 10 15 16 14 15 16 18 19 20 21 21 23 27 29 30 32 32 31 30 29 28 29 30 29 29 29 28 27 27 27 26 25 24 23 22 21 20 20 19 18 17 16 16 15 14 13 12 13
14 12 14 20 16 16 21 20 18 17 14 12 13 14 14 13 12 11 10 12 13 12 13 13 11 10 10 10 9 12 15 16 14 13 16 17 15 9 7 11 15 16 18 19 19 20 21 21 21 25 28 30 31 32 32 31 31 30 29 30 31 30 30 29 29 28 27 27 26 25 25 24 23 22 21 20 20 19 18 17 16 15 15 15 14 14
12 10 13 20 20 20 20 19 21 18 12 10 13 16 15 15 15 12 12 14 14 13 11 11 12 11 12 12 11 13 14 14 15 16 18 19 15 10 8 10 14 16 18 19 19 19 20 21 22 26 29 30 31 32 32 32 33 33 31 30 31 30 29 29 29 28 27 26 25 25 25 25 24 23 22 21 21 20 19 18 17 16 16 16 15 15
9 9 12 19 21 21 19 19 22 22 16 11 12 16 15 15 16 12 11 12 13 13 11 13 17 14 12 10 12 18 19 15 15 18 17 17 15 12 11 11 13 16 18 19 19 18 19 21 21 25 29 31 32 32 33 34 33 33 32 30 31 31 30 30 30 28 27 26 25 25 25 25 24 24 23 22 21 21 20 19 18 18 17 17 16 16
9 8 10 18 19 18 18 17 17 20 23 19 13 13 13 13 15 13 12 12 13 13 10 14 19 15 12 10 10 16 19 18 19 20 18 17 16 13 13 13 12 13 15 16 18 17 18 19 21 25 29 31 33 33 33 34 33 32 32 31 31 31 32 30 28 27 27 26 25 24 25 26 25 24 23 22 22 22 21 21 20 20 19 18 18 17
9 7 8 13 16 15 14 13 13 15 21 23 18 14 13 12 13 13 11 10 12 13 11 14 16 12 11 11 12 15 17 17 19 20 18 16 18 16 13 13 11 10 12 14 16 17 19 21 23 28 31 32 33 33 33 34 33 32 32 31 31 31 30 30 28 27 27 27 25 24 24 25 25 25 24 23 23 23 23 23 22 21 20 20 19 20
9 7 8 10 15 14 11 13 16 15 15 17 17 16 13 11 11 12 11 12 13 12 11 12 12 10 10 11 14 15 14 14 17 19 17 17 19 16 11 12 12 12 14 15 16 17 19 20 23 28 31 31 32 32 33 33 33 33 32 31 32 31 30 30 30 29 28 27 26 25 25 25 25 25 25 24 24 24 23 23 23 22 21 21 22 22
9 7 8 10 11 13 14 16 19 19 17 15 15 16 16 12 11 12 13 15 14 12 11 11 11 10 10 11 13 13 12 13 16 15 14 15 15 12 10 12 14 13 14 15 15 16 17 18 20 24 28 29 30 31 32 33 32 32 32 31 31 31 30 30 30 30 28 27 27 26 26 26 26 26 26 25 25 25 24 23 23 23 23 24 25 25
11 7 8 10 10 12 16 18 20 22 22 18 16 17 18 16 13 11 12 12 13 14 15 13 13 11 9 10 10 10 12 15 15 13 12 12 11 11 15 12 12 12 13 14 15 15 15 16 17 20 24 27 28 30 32 32 31 32 32 31 30 31 31 31 30 30 28 27 27 27 27 26 26 26 27 27 26 26 25 24 25 26 26 26 26 26
11 8 9 10 10 11 15 16 18 21 21 18 16 17 17 18 18 14 12 11 12 15 15 13 14 12 10 11 9 8 12 16 16 15 15 14 12 13 14 6 8 10 12 13 13 12 13 15 15 16 18 20 23 27 30 30 30 31 31 31 30 31 31 31 30 29 28 27 27 28 28 27 27 27 27 27 26 26 26 25 26 27 28 26 26 27
11 9 10 10 9 10 12 12 14 17 17 13 14 18 19 24 26 21 15 12 12 15 17 14 12 10 10 12 13 12 12 14 15 16 17 16 13 12 9 4 5 7 10 12 12 12 13 14 14 13 13 15 20 25 27 28 29 30 30 31 30 30 30 30 29 28 28 27 27 28 28 28 28 27 28 28 27 26 27 27 27 27 27 27 27 27
11 10 10 11 11 11 12 11 11 12 13 12 15 21 22 26 27 20 14 14 13 14 17 15 12 10 11 14 18 17 12 12 14 15 16 17 16 14 10 6 7 7 10 12 12 12 13 12 13 13 13 15 21 24 25 26 28 28 29 30 30 28 29 29 29 28 28 27 27 28 28 28 28 28 28 28 27 26 27 28 27 26 27 28 28 28
9 9 14 15 13 12 12 11 11 12 13 15 18 23 23 24 25 20 15 15 14 12 14 15 14 14 15 16 19 20 16 14 13 13 14 14 15 15 8 7 9 9 9 11 12 12 12 11 13 15 14 17 21 23 24 26 27 27 28 29 28 27 27 28 28 27 27 27 26 26 27 28 28 28 28 27 26 25 27 29 28 27 27 28 29 29
7 10 18 20 19 18 17 15 14 16 18 18 19 22 23 23 25 23 19 18 16 14 14 15 16 18 19 20 20 19 18 17 16 16 16 13 11 11 9 10 13 13 12 13 13 13 13 13 14 15 15 17 21 23 24 25 26 26 26 27 27 26 26 26 26 26 26 26 25 25 26 27 26 25 24 25 25 25 26 28 28 27 27 28 30 31
6 10 15 18 20 22 23 22 18 18 19 18 17 20 22 23 25 24 22 22 20 16 14 15 18 20 20 22 23 20 17 17 17 17 17 15 13 12 11 13 15 14 14 15 14 14 14 14 15 16 16 17 20 22 23 24 25 25 24 25 25 25 25 24 25 25 25 24 24 24 25 25 24 23 23 24 24 25 25 26 26 26 27 29 30 31
8 9 12 16 18 20 23 24 23 22 20 19 21 23 23 23 25 25 24 25 24 22 19 18 19 20 18 20 23 22 19 16 15 15 16 17 16 15 15 15 14 12 13 13 14 14 14 15 16 16 17 17 18 22 23 23 24 25 24 24 24 24 24 23 24 25 25 24 24 23 23 23 23 23 24 24 25 26 26 25 24 25 27 28 28 28
11 9 12 14 14 16 20 22 24 25 23 23 24 24 24 23 24 25 24 24 23 22 23 23 22 18 14 16 19 20 22 20 16 15 17 17 16 16 17 16 14 13 12 11 13 14 14 15 16 17 18 19 20 23 23 23 23 24 24 24 24 25 24 24 24 25 25 24 23 22 22 23 23 23 23 24 24 25 25 26 25 25 27 27 26 24
13 11 11 12 11 14 17 20 23 24 24 26 25 24 25 23 22 22 21 20 21 20 21 23 20 15 13 14 15 16 20 23 22 20 17 14 15 16 16 14 13 13 12 10 10 12 15 16 17 19 20 20 22 25 24 23 23 24 23 24 24 25 25 24 24 24 23 23 22 21 22 22 21 22 21 22 23 21 22 25 24 22 22 23 22 21
13 11 10 11 11 13 17 20 21 20 19 19 21 24 26 24 23 24 21 22 23 21 18 17 15 13 14 15 16 17 20 21 22 22 18 15 15 15 16 15 14 15 13 9 9 12 16 17 18 20 20 20 24 27 26 24 24 23 24 24 24 24 24 24 23 23 22 22 21 21 21 21 20 21 20 20 20 20 21 23 21 19 19 20 20 20
16 13 9 10 10 12 17 19 18 16 15 14 15 20 24 25 25 25 23 24 25 21 17 17 17 16 16 18 19 20 20 19 18 19 18 17 16 16 19 19 17 18 16 10 10 14 16 16 16 18 20 22 25 26 25 23 22 22 23 24 24 24 24 23 22 22 21 21 21 21 21 20 20 20 20 20 19 19 21 22 20 20 22 23 22 20
15 12 9 10 9 10 12 14 15 15 13 12 13 16 21 25 26 26 26 26 25 23 23 23 21 19 18 18 19 19 19 20 20 20 22 22 20 19 21 20 18 19 17 11 12 15 15 16 15 16 20 23 25 25 24 23 22 22 23 24 24 24 24 23 22 21 21 21 21 21 21 21 21 20 20 20 19 18 20 22 21 21 23 24 20 18
12 11 9 9 9 9 9 11 13 11 10 12 13 14 16 18 18 19 21 23 22 23 24 23 21 20 20 20 19 17 17 18 19 19 21 23 22 22 23 20 19 20 18 13 12 13 14 16 17 18 20 23 25 25 24 24 23 23 23 23 24 23 23 23 21 20 21 21 21 21 20 21 21 20 20 20 19 18 19 20 19 19 20 20 17 16
11 10 8 9 9 9 10 11 10 10 12 13 9 5 4 5 6 7 9 14 17 17 18 20 20 21 20 20 19 17 14 14 14 15 20 23 23 24 24 21 22 22 18 13 13 14 16 18 19 20 22 24 25 25 24 24 23 24 23 23 23 22 22 22 21 20 20 20 20 21 20 20 20 19 19 19 19 19 18 18 18 17 16 18 17 16
14 11 10 9 8 8 10 10 9 11 11 7 0 4 4 4 5 6 7 10 14 16 18 19 20 21 20 19 18 15 13 14 13 13 17 21 20 21 21 19 19 19 15 13 14 15 18 20 21 23 25 25 25 25 25 24 24 24 23 23 23 22 22 20 20 20 19 19 20 20 20 20 19 18 19 19 19 18 17 17 17 15 15 17 18 17
19 14 11 11 9 9 10 10 9 10 7 4 3 2 2 2 4 5 6 9 8 11 15 15 15 15 16 18 19 15 13 14 14 12 13 15 16 18 18 17 18 17 13 13 15 16 18 21 22 24 26 25 25 26 27 26 25 24 22 22 22 22 20 19 19 19 19 19 20 19 19 19 19 18 19 19 18 18 17 16 15 14 15 17 17 16
20 14 12 13 12 11 11 10 8 8 5 7 7 3 2 2 1 3 8 6 5 10 12 13 14 14 13 13 15 16 15 13 12 11 12 15 19 20 17 14 15 14 12 13 16 17 19 21 21 22 23 25 25 27 28 26 24 23 21 21 21 20 19 19 18 18 18 18 18 18 17 17 18 17 17 18 17 17 17 15 14 15 16 15 15 14
16 13 12 13 13 13 13 11 8 7 5 8 9 4 2 4 5 7 7 3 7 11 11 12 14 14 12 12 11 12 14 15 14 13 10 12 15 12 11 9 9 10 11 13 15 18 19 20 20 19 20 22 24 26 26 25 22 21 20 20 19 18 18 19 18 18 18 17 16 16 16 15 16 16 15 16 17 16 16 15 15 17 16 12 12 14
14 12 12 13 13 13 12 11 10 8 5 8 9 6 3 5 7 5 2 3 7 11 11 12 14 14 13 12 10 9 13 19 19 14 8 5 3 3 7 8 9 9 10 13 17 18 18 18 18 19 19 21 23 24 24 23 21 21 20 19 18 19 19 19 18 18 17 16 15 15 14 14 15 14 14 15 16 16 16 15 15 17 16 12 12 14
13 12 11 12 11 10 11 12 11 7 4 7 8 7 4 3 4 4 5 6 7 9 10 10 11 12 13 13 12 11 15 17 13 8 6 5 5 6 7 8 9 10 11 14 16 18 17 16 18 20 21 21 22 22 22 22 22 22 21 21 20 21 21 20 19 18 17 16 15 14 14 14 14 13 13 15 16 17 16 15 15 17 17 14 13 14
12 12 10 10 10 10 11 10 5 2 5 5 4 3 3 1 3 4 5 6 6 7 8 8 9 11 12 13 14 13 12 9 1 5 6 7 7 8 9 10 10 11 12 13 15 18 18 17 18 20 21 22 22 22 22 23 23 22 22 21 21 21 21 20 20 20 18 16 15 14 13 13 13 13 13 15 17 17 17 16 16 17 17 16 15 14
4 3 3 4 7 6 3 1 3 5 6 5 4 4 5 4 3 3 4 5 5 5 6 6 8 11 11 11 12 11 8 2 4 3 4 6 8 8 10 11 11 11 13 14 16 20 21 20 21 21 21 22 23 22 22 22 23 23 21 20 20 21 21 20 19 19 19 17 16 14 12 13 13 13 14 15 16 17 17 17 18 18 17 17 15 15
5 6 3 0 2 4 7 6 5 6 7 8 7 6 6 6 6 6 6 6 5 6 6 5 6 9 8 7 9 9 6 5 6 6 6 7 10 10 11 12 12 14 15 16 18 21 23 24 23 22 22 23 23 22 21 21 22 22 20 19 20 20 20 20 19 19 19 17 16 14 13 13 14 14 14 15 16 17 17 17 17 17 16 15 15 15
3 6 4 0 2 3 3 4 6 7 7 8 8 7 8 9 9 8 7 6 7 8 7 5 5 7 5 3 2 1 1 3 6 9 8 9 11 12 13 13 14 14 15 16 19 22 23 21 19 19 21 22 22 22 21 20 20 21 21 20 20 20 20 21 20 19 18 17 15 14 14 15 15 15 14 15 16 17 16 16 16 15 14 14 14 13
3 6 4 2 1 1 3 5 9 11 10 10 9 8 8 9 11 12 11 10 11 11 11 10 9 7 8 8 7 8 10 9 8 9 10 10 11 12 13 14 15 16 16 18 20 21 21 19 17 19 20 20 20 21 21 20 20 20 20 19 20 20 21 21 21 20 19 17 15 14 14 14 15 15 15 14 13 13 14 14 14 14 13 12 10 10
8 7 3 0 1 2 5 8 10 11 11 12 11 11 10 10 12 15 16 16 15 14 14 14 13 11 11 11 11 12 14 13 11 11 13 12 12 13 13 14 16 17 17 19 21 21 21 19 19 20 20 19 19 20 20 20 19 19 19 18 19 19 19 19 19 19 18 18 16 14 14 13 14 15 14 12 10 11 12 11 12 12 10 7 5 5
7 4 3 1 2 2 3 6 7 5 7 9 10 11 11 11 14 17 18 18 17 16 15 15 15 14 14 14 14 14 14 14 13 14 15 14 13 13 13 14 15 16 17 20 21 21 21 20 20 20 19 18 19 19 19 19 19 18 18 18 18 17 17 17 17 17 17 16 16 15 15 14 14 14 13 12 11 11 12 11 10 10 8 6 5 5
4 4 5 2 3 3 2 2 4 4 7 9 9 10 10 10 14 18 18 17 17 16 16 16 16 16 16 16 16 17 16 16 17 17 17 16 15 14 14 14 14 15 16 19 19 18 19 19 18 19 18 17 17 18 18 17 17 16 16 16 16 16 16 16 16 16 15 14 15 15 15 14 13 14 13 11 10 11 12 11 9 8 7 7 7 7
Wind_Direction
195 205 210 213 214 210 210 214 220 226 233 236 232 222 223 231 222 217 201 169 186 207 207 210 209 215 209 182 185 194 195 200 201 200 196 194 195 194 196 200 200 200 198 192 192 194 192 192 192 190 190 191 191 192 191 190 190 191 192 194 194 195 196 195 195 198 202 204 207 210 215 217 216 218 221 223 226 226 222 213 198 195 198 205 210 222
200 215 216 213 217 215 211 216 221 225 233 238 238 230 222 234 231 218 202 170 179 205 207 212 216 216 216 204 193 195 202 204 202 201 199 199 200 197 199 202 202 201 201 194 190 194 194 191 191 191 191 192 192 192 192 191 192 192 193 195 194 193 195 198 198 198 203 206 207 211 215 219 218 217 220 224 228 227 224 211 197 199 200 204 211 213
206 219 218 213 216 221 217 217 221 224 231 235 239 237 225 226 229 230 211 172 170 198 209 213 221 218 214 216 208 197 200 207 206 204 201 201 204 203 200 202 203 201 201 198 190 192 195 192 192 192 192 194 194 194 193 193 192 192 194 195 195 194 194 198 199 200 204 206 209 212 216 221 222 219 221 227 228 225 223 210 200 204 204 208 212 207
206 214 217 215 212 220 222 217 220 224 228 232 232 233 231 224 222 228 203 164 164 192 222 223 226 226 214 215 218 205 200 204 207 211 209 204 204 207 205 201 203 203 201 201 195 192 195 194 193 193 193 194 195 195 194 194 193 193 195 195 195 195 195 197 199 201 204 205 208 213 217 222 224 222 223 226 226 223 220 212 205 206 204 208 211 205
216 209 210 216 213 217 222 219 217 220 223 229 231 230 232 227 227 227 180 161 180 199 219 231 231 231 220 216 217 209 207 207 205 210 215 212 206 206 208 205 202 204 202 201 199 194 195 196 195 194 193 193 195 196 195 194 194 194 194 194 195 196 196 198 199 201 203 204 206 210 215 220 221 222 224 225 225 220 217 216 213 207 204 206 208 206
220 209 202 213 216 214 220 220 216 218 220 225 226 229 236 234 231 232 199 178 202 209 208 222 232 232 225 224 221 213 214 211 203 207 212 215 213 207 208 207 203 203 202 201 201 197 196 197 196 195 194 195 196 195 195 195 195 195 194 193 194 195 196 198 198 199 201 202 204 206 209 212 212 214 217 220 223 220 219 223 221 216 213 213 211 208
219 214 208 209 213 212 217 222 218 218 224 225 218 218 233 241 237 240 226 202 215 219 205 215 233 241 228 225 222 220 222 213 203 208 211 212 215 213 210 207 203 202 200 200 201 199 198 197 196 196 196 196 196 195 194 195 196 195 193 192 192 194 196 197 197 197 198 201 204 206 210 211 210 212 215 218 222 220 220 222 221 217 209 206 208 206
211 217 215 206 212 212 213 221 217 215 224 229 219 212 222 234 239 243 240 226 224 219 210 215 226 239 238 230 221 216 221 217 207 207 209 210 214 214 213 210 204 201 198 197 198 200 200 198 197 197 196 196 197 195 194 195 196 194 193 192 191 193 195 196 196 196 197 200 203 205 209 212 214 217 216 216 218 218 219 219 215 211 197 193 201 201
206 218 215 201 210 217 211 216 215 217 225 229 228 225 219 222 234 243 243 238 227 222 223 218 219 231 238 238 229 215 214 215 212 210 208 211 214 214 216 216 210 202 198 196 195 198 201 199 198 197 196 197 198 196 194 195 195 194 193 192 191 192 194 195 196 196 197 198 201 203 206 209 213 217 219 217 216 214 215 216 210 203 196 194 197 198
207 216 217 205 210 221 213 213 217 220 226 230 234 239 232 219 224 235 240 240 229 225 232 221 215 225 235 231 228 218 213 213 213 213 211 209 208 211 219 224 222 210 200 198 195 195 199 199 198 197 196 197 198 197 195 195 195 193 193 192 192 192 193 195 195 195 197 197 199 202 204 207 210 213 218 218 216 212 209 210 205 199 199 199 199 197
220 207 217 217 211 217 218 216 220 223 226 231 232 238 240 227 222 230 233 239 237 230 232 225 215 215 229 230 221 219 219 216 214 214 217 213 199 199 212 219 229 228 209 200 197 193 196 198 196 196 196 196 196 197 196 196 196 195 193 193 193 193 193 195 195 196 198 198 200 202 203 206 209 210 214 215 213 210 206 207 206 202 201 202 202 199
230 208 208 220 212 212 221 221 219 220 223 227 226 231 237 231 229 234 226 228 238 237 233 231 223 218 226 230 223 224 218 212 211 213 220 216 195 195 207 203 214 230 220 206 201 192 191 194 195 195 195 194 195 196 197 196 196 196 195 194 194 194 194 195 196 197 199 201 201 203 204 205 208 210 213 214 211 209 208 208 207 204 202 202 202 202
228 223 208 212 214 211 219 221 214 213 216 219 220 226 228 220 219 226 223 221 229 235 234 235 234 228 227 230 232 234 222 208 204 210 222 218 199 199 201 191 197 219 218 208 200 193 190 191 193 193 192 192 193 196 197 196 196 196 196 195 194 195 195 195 197 198 200 203 204 204 205 206 208 210 213 215 213 211 210 207 204 202 201 200 200 203
217 226 214 210 212 208 214 219 209 204 209 211 212 220 222 216 215 218 220 224 227 230 230 236 243 239 232 232 230 229 225 215 202 204 218 224 218 212 195 178 186 211 219 211 200 193 191 190 190 191 190 190 193 195 196 196 195 195 195 195 195 195 195 195 197 199 201 204 205 205 205 205 207 210 212 215 215 214 211 207 206 205 204 201 198 201
213 219 208 206 204 200 209 220 217 207 208 211 211 220 221 214 220 222 217 223 231 231 225 228 237 239 236 235 223 218 223 227 214 205 215 223 227 227 192 167 176 199 216 215 204 196 193 190 187 188 189 190 192 193 195 195 194 194 194 194 194 194 194 195 197 199 201 204 205 205 205 204 206 208 210 213 216 216 213 210 210 208 206 203 199 199
221 225 205 201 202 201 205 215 220 216 212 207 209 222 221 211 223 236 232 229 233 238 231 225 229 230 236 242 223 215 220 222 222 219 224 232 229 220 203 180 179 194 208 208 203 197 194 190 187 188 189 189 190 191 193 193 192 193 194 194 194 194 193 194 196 198 201 203 204 204 204 204 205 206 207 211 213 214 213 211 209 206 204 202 201 199
222 229 207 198 201 204 205 209 215 221 218 198 205 223 221 214 224 240 242 235 235 239 233 230 236 226 227 234 221 223 224 215 221 223 224 237 233 205 205 209 196 199 206 203 198 195 193 190 188 188 189 188 189 189 190 190 191 193 193 193 194 194 194 194 195 197 199 200 201 202 203 203 204 204 206 209 210 210 211 210 207 205 202 201 201 199
224 235 209 199 204 204 202 209 215 222 225 213 207 216 217 220 227 234 239 233 233 240 232 231 239 231 224 222 208 221 223 207 220 229 225 236 236 206 198 214 211 205 205 199 194 193 192 191 189 189 189 189 189 188 187 187 188 191 192 192 192 193 194 195 195 196 198 198 199 200 200 201 202 203 205 208 208 207 207 206 203 203 201 199 200 199
221 238 212 203 209 201 193 205 216 217 223 231 229 212 208 219 222 222 231 230 230 237 233 232 238 236 233 223 203 223 223 204 212 227 226 231 235 213 192 198 211 211 207 199 191 192 193 191 191 189 189 190 189 187 186 185 186 189 191 192 193 194 195 195 195 195 196 197 198 198 198 199 200 202 204 206 206 205 204 203 200 200 201 200 199 195
217 231 226 204 197 190 186 201 215 210 213 228 238 224 211 219 221 220 226 231 234 237 233 234 237 236 237 225 205 218 224 212 214 223 223 228 236 229 198 185 194 208 214 205 193 192 193 192 192 192 191 189 187 185 184 184 186 188 190 191 194 195 195 195 195 195 195 196 197 197 196 196 198 199 201 203 204 204 203 202 199 199 201 200 197 191
215 209 230 210 184 185 198 204 211 212 204 211 226 227 218 216 221 222 221 222 229 238 239 234 234 233 237 231 211 206 212 218 222 220 213 215 229 232 203 178 180 196 211 208 199 196 193 193 193 193 194 191 186 184 183 185 187 189 191 192 194 195 194 195 195 195 195 195 196 195 193 194 196 197 199 200 201 203 202 201 201 200 199 197 193 189
219 206 221 221 191 193 214 212 210 217 217 209 211 222 225 220 218 219 223 222 220 230 239 240 241 231 224 233 224 203 201 220 227 218 206 210 223 234 225 197 177 185 203 204 204 203 194 194 195 193 194 192 186 184 184 186 188 189 192 193 194 195 196 196 196 195 194 193 193 193 192 193 194 195 198 199 200 201 200 200 200 197 194 193 192 189
219 219 218 227 218 206 214 216 212 216 226 227 216 217 223 225 224 221 224 223 220 226 231 237 246 235 219 232 228 198 201 220 222 209 205 215 220 233 243 218 163 166 195 200 205 209 196 193 195 191 191 192 188 185 184 185 187 190 192 193 193 195 197 198 197 195 192 191 191 191 192 194 195 196 198 198 199 200 200 200 198 194 193 194 191 190
208 228 221 224 238 226 214 217 216 213 221 231 225 216 217 222 225 228 230 227 227 228 226 232 240 233 230 242 235 198 203 221 223 212 213 222 222 231 244 224 144 162 187 194 203 208 199 192 192 189 188 190 189 185 185 185 186 189 191 192 194 195 196 198 197 194 191 190 190 190 192 194 195 197 198 200 201 200 201 202 199 196 195 194 192 191
194 218 221 216 228 224 211 211 212 207 209 222 226 219 218 221 222 224 230 232 232 230 228 235 239 226 226 238 238 225 207 211 222 221 223 227 228 241 245 201 168 178 176 186 200 203 199 191 187 186 183 186 188 186 186 185 184 187 190 192 194 195 195 196 196 194 190 190 191 191 192 193 195 197 199 201 202 201 202 202 201 199 196 193 194 194
201 203 213 218 219 212 209 210 206 204 205 214 225 224 221 222 220 219 226 231 231 228 228 237 243 231 219 221 230 229 205 194 211 220 230 227 217 229 239 188 177 180 169 183 197 199 198 188 182 184 180 184 188 186 185 185 184 186 188 191 194 194 193 193 194 193 190 190 192 192 192 193 195 198 200 201 202 202 202 204 205 203 196 194 198 197
223 215 211 219 229 225 222 218 207 208 213 210 216 225 226 223 219 218 224 230 230 229 232 239 245 244 236 227 228 224 208 200 214 227 243 239 213 210 205 153 164 179 176 186 195 197 196 185 180 182 180 183 188 186 185 184 185 186 185 189 193 192 191 191 192 191 189 190 192 191 192 194 195 199 200 201 202 202 203 207 211 207 198 197 201 199
240 238 217 215 226 236 244 239 218 217 225 218 211 219 226 225 222 221 224 229 230 231 233 231 232 239 245 244 239 228 214 209 220 233 239 240 228 212 184 161 172 180 179 186 192 193 193 186 180 180 180 182 186 186 185 185 186 186 185 187 190 190 189 188 188 188 188 188 190 190 192 194 195 197 199 200 201 202 204 209 212 208 200 200 203 201
237 242 224 218 221 228 242 249 239 232 235 231 222 222 225 226 228 229 229 229 229 234 238 231 227 230 237 244 245 242 229 212 215 229 229 223 227 228 211 191 182 179 182 186 188 189 188 186 181 180 181 182 185 186 186 186 185 185 185 186 187 188 186 183 182 184 186 187 189 190 190 192 195 198 200 202 202 204 207 209 211 210 205 204 205 205
228 235 228 232 231 226 232 241 245 244 241 234 230 230 227 225 228 232 235 235 233 238 242 239 237 235 231 234 239 245 247 232 215 217 224 226 229 233 228 211 194 195 196 186 185 188 187 186 183 181 182 182 185 187 187 186 184 184 184 184 184 185 182 178 177 180 183 186 187 187 186 189 196 199 202 204 204 206 212 213 211 211 213 211 208 207
217 226 224 235 248 241 232 234 238 242 243 239 235 233 232 229 228 229 232 234 235 238 241 241 242 241 234 231 231 236 248 250 238 219 216 222 228 233 237 229 218 223 220 199 190 187 185 188 185 183 185 184 185 189 188 185 183 182 182 180 179 181 178 175 174 176 181 184 184 184 183 186 195 198 198 203 206 208 212 217 218 217 218 217 211 208
209 220 222 228 242 243 239 239 239 238 241 244 242 238 235 233 231 230 229 230 232 234 237 240 242 239 234 234 231 229 238 248 250 242 227 218 219 227 239 243 238 238 234 216 201 190 186 190 187 187 191 186 183 188 189 184 180 179 179 176 175 176 175 173 173 174 179 181 180 182 183 185 195 199 197 202 208 206 207 215 221 219 213 210 210 210
211 213 216 222 233 237 236 240 244 241 239 240 240 239 239 238 237 235 230 228 230 231 233 237 241 241 236 235 234 231 231 236 242 245 244 239 234 235 242 245 243 246 239 212 195 198 195 194 192 191 192 188 183 186 187 184 179 178 176 172 170 172 171 171 171 172 176 178 178 181 184 188 196 199 198 201 202 198 203 213 218 212 206 210 217 216
211 209 213 221 231 237 233 234 241 241 236 234 233 236 242 245 246 245 240 232 229 230 234 235 236 239 236 232 232 232 233 235 238 241 245 248 248 244 241 238 235 244 245 216 199 211 205 199 197 191 191 191 184 181 183 182 178 175 172 168 167 168 168 168 169 170 173 175 176 180 184 188 194 194 194 197 194 191 202 212 210 209 216 226 229 222
207 204 212 222 228 234 233 232 234 234 236 241 237 233 238 242 248 254 255 247 237 233 237 239 235 233 233 235 235 232 231 235 238 241 241 242 243 242 240 235 227 235 241 225 213 215 204 197 197 189 187 189 182 176 177 179 175 171 168 166 165 165 165 167 168 169 172 174 176 179 182 187 191 188 187 193 193 193 203 210 207 208 220 228 227 218
213 205 211 222 226 227 227 226 230 239 250 251 244 238 238 239 246 256 261 257 249 240 240 242 242 237 234 234 236 234 231 232 235 239 240 239 239 239 239 233 227 231 234 222 213 211 196 191 193 185 181 182 178 173 174 175 173 169 166 164 163 162 164 166 167 169 170 172 174 176 179 184 186 186 186 189 191 194 202 208 210 211 216 223 221 212
221 212 212 217 218 222 229 231 240 256 253 243 243 254 256 256 265 278 280 275 273 269 258 248 246 246 243 238 235 233 233 237 239 237 235 235 236 238 238 234 232 232 227 212 204 196 184 185 187 180 176 177 176 171 170 171 169 165 163 162 161 161 162 164 167 168 169 169 170 172 175 178 180 183 186 186 186 192 199 205 211 212 211 217 220 212
218 212 214 220 216 219 230 233 239 247 243 233 296 37 32 356 330 336 317 281 276 283 278 262 251 249 249 247 241 235 234 240 244 240 233 230 231 235 236 234 235 234 222 206 197 182 174 180 182 175 172 174 172 166 164 166 165 162 161 160 159 159 161 164 167 166 166 166 166 167 169 172 174 178 181 182 184 192 199 202 204 205 206 213 218 216
218 211 212 223 224 219 227 232 231 234 225 165 119 60 15 352 355 344 292 264 271 295 298 296 289 277 265 254 244 236 234 237 238 237 232 228 230 234 233 230 232 231 218 198 187 175 171 176 175 170 170 170 166 161 161 163 162 160 159 157 156 157 159 163 164 163 163 162 161 162 163 166 171 175 178 182 186 191 195 194 195 201 206 211 216 217
217 211 208 218 223 219 226 233 234 240 224 161 154 174 216 177 114 246 241 246 341 346 334 327 319 311 306 287 260 240 234 237 241 240 239 242 240 232 222 220 222 219 207 192 182 172 168 169 169 169 170 168 162 158 159 160 159 157 155 152 152 154 156 158 159 158 157 155 155 158 160 163 169 172 176 181 183 186 189 186 186 195 201 205 210 212
213 212 208 215 218 217 223 231 237 248 228 173 170 192 220 204 211 228 230 259 343 335 333 331 317 312 316 310 286 253 240 240 243 241 247 262 255 226 194 191 201 198 190 177 164 158 159 163 166 167 165 161 156 153 154 155 153 150 147 145 146 148 149 149 149 148 147 147 150 154 156 159 164 167 172 176 175 178 184 182 179 183 188 194 203 205
205 207 207 213 218 218 220 228 239 241 196 165 181 191 193 225 235 240 272 319 317 316 324 328 319 315 312 303 295 281 262 251 240 229 229 267 274 144 144 162 169 170 163 149 145 151 156 158 157 155 152 149 146 146 148 148 142 137 136 135 134 137 137 137 136 134 136 140 144 148 152 154 157 162 165 168 169 171 173 173 171 176 183 192 197 196
196 199 208 209 211 217 218 223 235 235 175 169 197 194 176 239 276 350 352 317 310 317 317 313 312 315 310 299 292 286 276 265 246 209 192 201 173 139 140 149 145 140 136 134 140 148 150 146 146 147 144 140 139 142 142 137 130 127 127 126 126 129 129 127 128 129 132 138 142 146 150 150 153 158 159 165 172 169 165 165 166 171 183 192 190 189
197 203 214 206 203 216 222 222 226 176 143 157 190 169 121 43 343 352 332 321 330 323 311 312 317 312 303 294 287 277 269 272 247 134 152 160 150 144 141 136 133 136 139 141 143 144 143 141 141 142 138 133 133 135 132 126 121 119 120 121 125 127 125 125 128 131 133 136 140 145 149 149 151 155 155 161 167 163 163 170 168 169 182 189 185 186
225 245 250 221 215 213 205 156 89 98 120 118 90 80 90 76 45 8 335 339 353 337 323 322 317 309 303 295 287 272 249 198 99 125 163 146 134 133 134 134 137 140 140 138 136 135 134 132 129 127 124 119 117 118 118 118 117 114 114 119 123 123 123 127 131 132 133 135 139 145 150 150 153 157 155 157 162 161 166 174 174 174 184 189 188 191
314 329 347 23 160 98 78 82 96 103 107 103 90 75 73 70 62 47 21 9 11 358 345 331 311 312 310 291 277 264 234 175 150 164 170 140 123 117 118 124 128 130 132 131 128 126 124 121 117 113 107 104 103 105 108 111 113 112 113 118 122 124 127 131 133 133 133 134 138 146 152 154 158 160 159 162 168 168 169 174 177 178 183 187 191 196
318 327 331 236 173 137 107 107 107 100 97 100 98 81 62 57 54 49 38 31 26 13 8 14 358 348 358 359 327 331 99 118 136 142 134 119 112 110 111 113 112 115 120 120 118 116 113 112 111 105 101 102 104 106 109 110 112 116 122 127 129 131 134 137 138 136 132 134 142 152 159 160 160 160 161 166 172 174 173 175 177 176 179 188 196 200
335 332 342 18 85 170 179 135 103 88 74 69 72 70 64 61 58 52 47 49 45 33 35 49 48 38 47 56 65 81 82 74 83 102 107 107 107 105 105 105 102 101 101 100 101 103 102 102 103 101 100 102 105 109 113 116 119 125 129 132 134 136 140 143 141 137 134 138 147 155 158 159 160 162 164 165 168 170 171 174 177 177 181 191 203 208
315 309 308 173 117 151 172 154 127 105 86 72 62 57 60 68 71 63 52 47 45 40 44 55 60 60 63 66 72 80 81 79 82 90 90 88 88 89 90 93 92 90 89 89 89 91 94 97 99 99 100 103 108 113 117 120 125 130 131 132 136 140 143 144 141 139 139 143 148 152 153 156 163 166 160 151 145 147 147 155 167 171 170 177 198 208
320 321 324 318 148 183 187 149 135 125 105 88 66 54 58 66 71 68 59 48 41 34 35 45 53 54 54 54 58 64 68 69 71 74 73 69 66 67 69 76 82 83 83 84 85 87 89 93 97 99 102 106 111 115 119 122 128 131 132 134 139 141 142 141 139 139 142 147 152 155 157 161 167 167 161 152 146 140 134 138 156 162 155 161 177 177
341 344 337 6 135 193 268 90 103 100 100 96 70 46 43 51 63 66 60 52 42 32 28 32 37 41 43 43 45 48 51 53 53 55 56 54 51 52 54 60 69 76 80 82 83 86 89 91 95 99 102 106 111 114 117 121 123 125 127 130 135 139 142 143 141 143 151 157 155 156 162 166 163 158 156 153 149 146 142 141 150 157 159 171 178 169